Vichy, MO

9:26 AM CST on December 06, 2016 (GMT -0600)
Rolla National

Weather History for KVIH - August, 2013

Change the Weather History Date:

Saturday, August 3, 2013

  Actual Average Record
Temperature  
Mean Temperature 77 °F 78 °F  
Max Temperature 84 °F 89 °F 104 °F (1964)
Min Temperature 69 °F 66 °F 56 °F (1950)
Degree Days  
Heating Degree Days 0 0  
Month to date heating degree days 0 0  
Since 1 June heating degree days 19 15  
Since 1 July heating degree days 2 1  
Cooling Degree Days 12 13  
Month to date cooling degree days 28 39  
Year to date cooling degree days 634 763  
Since 1 June cooling degree days 527 656  
Growing Degree Days 26 (Base 50)    
Moisture  
Dew Point 70 °F    
Average Humidity 83    
Maximum Humidity 100    
Minimum Humidity 65    
Precipitation  
Precipitation 0.18 in 0.11 in 1.11 in (1957)
Month to date precipitation 0.25 0.36  
Year to date precipitation 28.94 26.24  
Sea Level Pressure  
Sea Level Pressure 30.01 in    
Wind  
Wind Speed 5 mph (NW)    
Max Wind Speed 10 mph    
Max Gust Speed 15 mph    
Visibility 7 miles    
Events Rain , Thunderstorm    
T = Trace of Precipitation, MM = Missing Value Source: NWS Daily Summary

Daily Weather History Graph

Daily Weather History Graph

Search for Another Location

Airport or City:

Trip Planner

Search our weather history database for the weather conditions in past years. The results will help you decide how hot, cold, wet, or windy it might be!

Date:

Astronomy

Aug. 03, 2013 Rise Set
Actual Time 6:11 AM CDT 8:14 PM CDT
Civil Twilight 5:42 AM CDT 8:43 PM CDT
Nautical Twilight 5:07 AM CDT 9:18 PM CDT
Astronomical Twilight 4:28 AM CDT 9:56 PM CDT
Moon 3:21 AM CDT (8/3) 5:56 PM CDT (8/3)
Length of Visible Light 15h 00m
Length of Day
14h 02m
Waning Crescent, 9% of the Moon is Illuminated
Aug 3
Waning Crescent
Aug 6
New
Aug 14
First Quarter
Aug 20
Full
Aug 28
Last Quarter

Hourly Weather History & Observations

Time (CDT) Temp. Heat Index Dew Point Humidity Pressure Visibility Wind Dir Wind Speed Gust Speed Precip Events Conditions
12:53 AM 71.1 °F - 69.1 °F 93% 29.91 in 6.0 mi Calm Calm - N/A   Mostly Cloudy
1:53 AM 70.0 °F - 70.0 °F 100% 29.91 in 4.0 mi Calm Calm - N/A   Scattered Clouds
2:53 AM 71.1 °F - 70.0 °F 96% 29.91 in 6.0 mi ESE 4.6 mph - N/A   Overcast
3:16 AM 71.6 °F - 69.8 °F 94% 29.95 in 5.0 mi NE 3.5 mph - N/A   Overcast
3:42 AM 71.6 °F - 69.8 °F 94% 29.93 in 5.0 mi Calm Calm - N/A   Overcast
3:53 AM 71.1 °F - 70.0 °F 96% 29.91 in 5.0 mi Calm Calm - N/A   Overcast
4:05 AM 71.6 °F - 69.8 °F 94% 29.93 in 4.0 mi NNE 6.9 mph - N/A Thunderstorm Overcast
4:17 AM 71.6 °F - 69.8 °F 94% 29.93 in 4.0 mi NNE 9.2 mph - N/A   Overcast
4:31 AM 71.6 °F - 69.8 °F 94% 29.96 in 2.5 mi NNE 3.5 mph - 0.06 in Rain Heavy Rain
4:38 AM 71.6 °F - 71.6 °F 100% 29.96 in 4.0 mi SSE 3.5 mph - 0.07 in Rain Light Rain
4:53 AM 71.1 °F - 70.0 °F 96% 29.93 in 4.0 mi Calm Calm - 0.07 in Rain Light Rain
5:01 AM 71.6 °F - 69.8 °F 94% 29.96 in 4.0 mi Calm Calm - 0.01 in Rain , Thunderstorm Rain
5:46 AM 71.6 °F - 69.8 °F 94% 29.98 in 5.0 mi South 3.5 mph - 0.01 in   Overcast
5:53 AM 71.1 °F - 70.0 °F 96% 29.96 in 5.0 mi SSW 4.6 mph - 0.01 in   Overcast
6:02 AM 71.6 °F - 71.6 °F 100% 29.99 in 3.0 mi Calm Calm - 0.01 in Rain Light Rain
6:09 AM 71.6 °F - 71.6 °F 100% 30.00 in 2.0 mi Calm Calm - 0.01 in Rain Light Rain
6:12 AM 71.6 °F - 71.6 °F 100% 30.00 in 2.0 mi Calm Calm - 0.02 in Rain , Thunderstorm Light Rain
6:21 AM 71.6 °F - 71.6 °F 100% 30.00 in 2.5 mi WSW 3.5 mph - 0.03 in Rain , Thunderstorm Light Rain
6:29 AM 71.6 °F - 69.8 °F 94% 30.00 in 4.0 mi Calm Calm - 0.03 in Rain , Thunderstorm Light Rain
6:37 AM 71.6 °F - 69.8 °F 94% 30.00 in 2.5 mi SW 5.8 mph - 0.04 in Rain , Thunderstorm Rain
6:53 AM 71.1 °F - 71.1 °F 100% 29.97 in 3.0 mi WSW 6.9 mph - 0.10 in Rain , Thunderstorm Rain
7:02 AM 71.6 °F - 71.6 °F 100% 30.01 in 7.0 mi WSW 9.2 mph - 0.00 in Rain , Thunderstorm Light Rain
7:14 AM 71.6 °F - 71.6 °F 100% 30.01 in 9.0 mi WSW 6.9 mph - 0.00 in Thunderstorm Overcast
7:24 AM 71.6 °F - 71.6 °F 100% 30.01 in 10.0 mi West 6.9 mph - 0.00 in   Overcast
7:37 AM 71.6 °F - 69.8 °F 94% 30.02 in 10.0 mi WNW 5.8 mph - 0.00 in   Overcast
7:53 AM 71.1 °F - 70.0 °F 96% 30.00 in 10.0 mi West 10.4 mph - 0.00 in   Overcast
8:16 AM 71.6 °F - 69.8 °F 94% 30.05 in 10.0 mi WNW 5.8 mph - N/A   Overcast
8:53 AM 72.0 °F - 70.0 °F 93% 30.02 in 10.0 mi West 4.6 mph - N/A   Overcast
9:07 AM 71.6 °F - 69.8 °F 94% 30.06 in 10.0 mi West 4.6 mph - N/A   Overcast
9:39 AM 71.6 °F - 69.8 °F 94% 30.06 in 10.0 mi Variable 5.8 mph - N/A   Overcast
9:53 AM 72.0 °F - 70.0 °F 93% 30.04 in 10.0 mi West 6.9 mph - N/A   Overcast
10:51 AM 73.4 °F - 69.8 °F 88% 30.08 in 10.0 mi WNW 6.9 mph - N/A   Overcast
10:53 AM 73.0 °F - 70.0 °F 90% 30.05 in 10.0 mi WNW 8.1 mph - N/A   Overcast
11:21 AM 73.4 °F - 71.6 °F 94% 30.08 in 10.0 mi NW 9.2 mph - N/A   Overcast
11:53 AM 73.9 °F - 71.1 °F 91% 30.05 in 10.0 mi NW 5.8 mph - N/A   Overcast
12:26 PM 75.2 °F - 71.6 °F 89% 30.07 in 10.0 mi NW 6.9 mph - N/A   Mostly Cloudy
12:53 PM 77.0 °F - 71.1 °F 82% 30.04 in 10.0 mi Variable 6.9 mph - N/A   Mostly Cloudy
1:53 PM 75.0 °F - 71.1 °F 87% 30.05 in 10.0 mi NW 3.5 mph - N/A   Overcast
2:38 PM 78.8 °F - 71.6 °F 78% 30.07 in 10.0 mi North 8.1 mph - N/A   Overcast
2:53 PM 81.0 °F 85.8 °F 73.0 °F 77% 30.04 in 10.0 mi NNW 5.8 mph - N/A   Overcast
3:25 PM 80.6 °F 84.6 °F 71.6 °F 74% 30.07 in 10.0 mi Calm Calm - N/A   Mostly Cloudy
3:53 PM 81.0 °F 84.4 °F 70.0 °F 69% 30.03 in 10.0 mi North 4.6 mph - N/A   Mostly Cloudy
4:53 PM 82.9 °F 87.0 °F 70.0 °F 65% 30.03 in 10.0 mi North 8.1 mph - N/A   Partly Cloudy
5:53 PM 82.9 °F 87.0 °F 70.0 °F 65% 30.03 in 10.0 mi NNE 6.9 mph - N/A   Clear
6:53 PM 82.0 °F 85.5 °F 69.1 °F 65% 30.03 in 10.0 mi North 4.6 mph - N/A   Clear
7:53 PM 78.1 °F - 71.1 °F 79% 30.04 in 10.0 mi NE 4.6 mph - N/A   Scattered Clouds
8:53 PM 73.0 °F - 69.1 °F 87% 30.05 in 10.0 mi NE 4.6 mph - N/A   Clear
9:53 PM 72.0 °F - 69.1 °F 91% 30.09 in 10.0 mi NE 4.6 mph - N/A   Clear
10:53 PM 71.1 °F - 68.0 °F 90% 30.10 in 10.0 mi East 3.5 mph - N/A   Scattered Clouds
11:53 PM 71.1 °F - 66.9 °F 87% 30.10 in 10.0 mi ENE 5.8 mph - N/A   Mostly Cloudy